This demonstration page uses our WeatherBlox Daily Observations layout. Learn more.

Left ArrowRight Arrow

Hourly Observations for June 17, 2020

Temp ( °F °C ) Dew Point ( °F °C ) Humidity (%) Winds ( mph kmh ) Pressure ( in mb ) Visibility ( mi km ) Precip ( " mm )
12:53 am 00:53 Cloudy 64 17.8 54 12.2 70 70 E 8 13 30.15 1021 10 16 0.00 0.00
1:53 am 01:53 Cloudy 63 17.2 53 11.7 70 70 E 7 11 30.14 1021 10 16 0.00 0.00
2:53 am 02:53 Cloudy 63 17.2 53 11.7 70 70 E 5 7 30.13 1020 10 16 0.00 0.00
3:53 am 03:53 Cloudy 61 16.1 53 11.7 75 75 S 5 7 30.11 1020 10 16 0.00 0.00
4:53 am 04:53 Mostly Cloudy 60 15.6 53 11.7 78 78 VRB 3 6 30.11 1020 10 16 0.00 0.00
5:53 am 05:53 Cloudy 60 15.6 53 11.7 78 78 S 3 6 30.11 1020 10 16 0.00 0.00
6:53 am 06:53 Cloudy 60 15.6 53 11.7 78 78 SSW 5 7 30.13 1020 10 16 0.00 0.00
7:53 am 07:53 Cloudy 62 16.7 54 12.2 75 75 VRB 3 6 30.13 1020 10 16 0.00 0.00
8:53 am 08:53 Cloudy 62 16.7 54 12.2 75 75 Calm 30.14 1021 10 16 0.00 0.00
9:53 am 09:53 Cloudy 63 17.2 54 12.2 73 73 W 3 6 30.15 1021 10 16 0.00 0.00
10:53 am 10:53 Cloudy 64 17.8 55 12.8 73 73 Calm 30.14 1021 10 16 0.00 0.00
11:53 am 11:53 Cloudy 66 18.9 56 13.3 70 70 Calm 30.14 1021 10 16 0.00 0.00
12:39 pm 12:39 Cloudy 68 20 56 13.3 65 65 VRB 3 6 30.13 1020 10 16 0.00 0.00
12:53 pm 12:53 Cloudy 68 20 56 13.3 65 65 VRB 3 6 30.12 1020 10 16 0.00 0.00
1:53 pm 13:53 Cloudy 71 21.7 57 13.9 61 61 Calm 30.10 1019 10 16 0.00 0.00
2:20 pm 14:20 Cloudy 71 21.7 57 13.9 61 61 N 5 7 30.08 1019 10 16 0.00 0.00
2:53 pm 14:53 Cloudy 72 22.2 57 13.9 59 59 NNW 7 11 30.08 1019 10 16 0.00 0.00
3:53 pm 15:53 Cloudy 73 22.8 59 15 62 62 WNW 5 7 30.06 1018 10 16 0.00 0.00
4:53 pm 16:53 Cloudy 73 22.8 58 14.4 59 59 NW 5 7 30.06 1018 10 16 0.00 0.00
5:53 pm 17:53 Mostly Cloudy 75 23.9 59 15 58 58 VRB 6 9 30.04 1017 10 16 0.00 0.00
6:53 pm 18:53 Cloudy 74 23.3 58 14.4 57 57 NNW 6 9 30.03 1017 10 16 0.00 0.00
7:53 pm 19:53 Mostly Sunny 71 21.7 58 14.4 63 63 Calm 30.03 1017 10 16 0.00 0.00
8:53 pm 20:53 Clear 70 21.1 58 14.4 66 66 N 3 6 30.03 1017 10 16 0.00 0.00
9:53 pm 21:53 Clear 66 18.9 59 15 78 78 Calm 30.04 1017 10 16 0.00 0.00
10:53 pm 22:53 Clear 64 17.8 59 15 84 84 Calm 30.05 1018 10 16 0.00 0.00
11:53 pm 23:53 Clear 63 17.2 59 15 87 87 Calm 30.06 1018 10 16 0.00 0.00

Powered by AerisWeather